STARLINK-1327, 45555

Orbit data source: Space-Track

STARLINK-1327, 45555 is a payload satellite owned by SpaceX/Seattle (US) in LEO that was launched on Wed, 22 Apr 2020 UTC via an FALCON 9 launch vehicle from the Air Force Eastern Test Range (AFETR). Payloads include a variety of satellites, spacecraft, and rockets equipped with specific instruments for various scientific and technological missions. These include communications satellites like Starlink; space stations such as the ISS; scientific satellites like the Hubble; Earth observation satellites from companies like Planet Labs, Umbra, and HawkEye 360; GPS; miniature CubeSats for education and research; and military/defense satellites.

Loading next visibility...
STARLINK-1327 details
Identifier
45555, 2020-025AA
Orbit
LEO
Last TLE update12 hours ago
Origin
Flag of USSpaceX/Seattle (US)
ManufacturerSpaceX/Seattle
MissionOperational Commercial Communications
Bus & MotorSTARLINK, Unknown motor
Mass260 kg wet, ~248 kg dry
Launch date (UTC)
2020-04-22 (5 years ago)
Launch vehicle
FALCON 9
Launch site
Air Force Eastern Test Range (AFETR)
Object type
Payload
Rocket body
Debris
Shape & HBRBox + 1 Pan, 8.86 m
Radar Cross Section13.562 m², Large (>1 m²)

Expand to show TLE details & history

TLE from 12 hours ago
0 STARLINK-1327
1 45555U 20025AA  24360.98418334  .00020001  00000-0  13568-2 0  9996
2 45555  53.0539 256.0434 0001277  94.3696 265.7439 15.06427955258644
Epoch: 2024-12-25T23:37Z
Definitive object data (Epoch: 2024-12-25T23:37:13.44Z)
Latitude-0.00002°
Longitude166.76729°
Altitude548.071 km
Speed7.589 km/s
True Right ascension17h 04m 10s
True Declination0° 00' 00"
Sunlit
Object was in daylight at TLE epoch
Visualization TLE readout
Latitude44.13519°
Longitude-61.94553°
Altitude550.744 km
Speed7.592 km/s
Apparent Right ascension00h 15m 00s
Apparent Declination4° 37' 36"
Sunlit
Object is in full shadow
Visualization observer readout
Local Sidereal Time10:39:01
Azimuth327.9° NNW
Elevation-40.29°
Doppler factor1
Orbital elements
Apogee altitude548.281 km
Perigee altitude546.512 km
Semi-major axis6,925.534 km
Eccentricity0.0001277
Inclination53.0539°
RAAN256.0434°
Arg. of periapsis94.3696°
True anomaly265.72931°
Mean anomaly265.7439°
Eccentric anomaly265.7366°
Mean motion3.76585 °/min
BSTAR0.0013568
Orbital period95.6 mins
Loading maneuver chart data...
Loading historical data...
Loading historical data...
Loading historical data...
Loading historical data...
Loading historical data...
Loading historical data...
Loading historical data...

STARLINK-1327 Visibility forecast

Observer location: undefined°, undefined

Span
Click to sort rows by Start time (UTC) header in descending order
Start Az.
Max El. time (UTC)
Max El. Az.
Max El.
End time (UTC)
End Az.
5 mins2024-12-26 18:52:42.018Z177.018° S2024-12-26 18:55:42.018Z122.138° SE21.448°2024-12-26 18:57:42.018Z85.861° E
5 mins2024-12-26 20:32:42.018Z262.649° W2024-12-26 20:34:42.018Z326.532° NNW37.243°2024-12-26 20:37:42.018Z37.165° NE
5 mins2024-12-27 01:34:42.018Z345.869° N2024-12-27 01:36:42.018Z34.799° NE26.237°2024-12-27 01:39:42.018Z87.497° E
6 mins2024-12-27 03:13:42.018Z290.586° WNW2024-12-27 03:15:42.018Z245.724° WSW35.423°2024-12-27 03:19:42.018Z152.996° SSE
|